Regional Weather Roundup
Issued by NWS Cleveland, OH

Home | Current Version | Previous Version | Graphics & Text | Print | Product List | Glossary On
Versions: 1 2 3 4 5 6 7 8 9 10 11 12 13 14 15 16 17 18 19 20 21 22 23 24 25 26 27 28 29 30 31 32 33 34 35 36 37 38 39 40 41 42 43 44 45 46 47 48 49 50
581
ASUS41 KCLE 010100
RWRCLE
OHIO REGIONAL WEATHER ROUNDUP
NATIONAL WEATHER SERVICE WILMINGTON, OH
900 PM EDT TUE MAY 31 2016

NOTE: "FAIR" INDICATES FEW OR NO CLOUDS BELOW 12,000 FEET WITH NO
SIGNIFICANT WEATHER AND/OR OBSTRUCTIONS TO VISIBILITY.

OHZ001>008-015>018-024>027-034-035-043-044-010200-
   NORTHWEST OHIO

CITY           SKY/WX    TMP DP  RH WIND       PRES   REMARKS
DEFIANCE       FAIR      77  45  32 E9        30.01R
FINDLAY        FAIR      76  42  29 E10       30.00S
TOLEDO EXPRESS FAIR      73  49  42 E9        30.01S
TOLEDO EXEC    FAIR      73  50  44 E6        30.03R
LIMA           FAIR      76  48  37 E14       30.00R
$$

OHZ009>014-019>023-028>033-038-089-010200-
   NORTHEAST OHIO

CITY           SKY/WX    TMP DP  RH WIND       PRES   REMARKS
CLE-HOPKINS    MOCLDY    74  46  36 NE13      30.04F
CLE-LAKEFRONT  FAIR      71  59  65 NE10      30.02S
CUY CO. ARPT   PTCLDY    70  52  52 NE6       30.05S
LORAIN-ELYRIA  FAIR      72  46  39 E8        30.03F
ASHTABULA      FAIR      67  50  54 CALM      30.05S
AKRON-CANTON   MOCLDY    73  48  41 NE10      30.03S
WOOSTER        NOT AVBL
MANSFIELD      FAIR      71  48  43 N8        30.03S
YOUNGSTOWN     CLOUDY    71  49  45 N7        30.04R
$$

OHZ042-051>053-060>062-070>072-077>081-010200-
  SOUTHWEST OHIO

CITY           SKY/WX    TMP DP  RH WIND       PRES   REMARKS
CINC-COVINGTON FAIR      77  61  57 S5        29.96S
CINC-LUNKEN    FAIR      75  68  78 CALM      29.95S
HAMILTON       FAIR      75  65  70 CALM      29.95S
DAYTON         NOT AVBL
WRIGHT-PAT AFB NOT AVBL
DAYTON GENERAL MOCLDY    78  59  51 S8        29.96R
WILMINGTON     FAIR      76  66  71 CALM      29.97R
$$

OHZ036-037-039>041-045>050-054>059-063>069-073>076-082>088-010200-
  CENTRAL AND SOUTHEAST OHIO

CITY           SKY/WX    TMP DP  RH WIND       PRES   REMARKS
COLUMBUS       MOCLDY    78  60  53 NE8       29.96S
OSU AIRPORT    FAIR      77  59  53 NE8       29.98R
BOLTON FIELD   NOT AVBL
RICKENBACK AFB NOT AVBL
NEWARK         FAIR      79  59  50 N6        29.98R
MARION         FAIR      73  52  47 NE12      30.01S
LANCASTER      FAIR      74  64  71 CALM      29.97S
ZANESVILLE     FAIR      80  62  54 N5        29.98S
NEW PHILLY     FAIR      78  55  44 NE8       30.01R
$$




USA.gov is the U.S. government's official web portal to all federal, state and local government web resources and services.